TimeEDT,TemperatureF,Dew PointF,Humidity,Sea Level PressureIn,VisibilityMPH,Wind Direction,Wind SpeedMPH,Gust SpeedMPH,PrecipitationIn,Events,Conditions,WindDirDegrees,DateUTC
12:51 AM,52.0,45.0,77,30.11,10.0,Calm,Calm,-,N/A,,Partly Cloudy,0,2013-09-07 04:51:00
1:51 AM,50.0,45.0,83,30.10,10.0,Calm,Calm,-,N/A,,Clear,0,2013-09-07 05:51:00
2:51 AM,48.9,46.0,90,30.09,10.0,South,4.6,-,N/A,,Clear,170,2013-09-07 06:51:00
3:51 AM,50.0,45.0,83,30.09,10.0,South,3.5,-,N/A,,Partly Cloudy,190,2013-09-07 07:51:00
4:51 AM,50.0,45.0,83,30.09,10.0,Calm,Calm,-,N/A,,Clear,0,2013-09-07 08:51:00
5:51 AM,48.9,46.9,93,30.08,10.0,SSE,3.5,-,N/A,,Partly Cloudy,150,2013-09-07 09:51:00
6:51 AM,46.9,45.0,93,30.08,10.0,Calm,Calm,-,N/A,,Partly Cloudy,0,2013-09-07 10:51:00
7:51 AM,53.1,48.9,86,30.08,10.0,South,3.5,-,N/A,,Partly Cloudy,180,2013-09-07 11:51:00
8:51 AM,57.9,48.0,70,30.06,10.0,SSE,3.5,-,N/A,,Scattered Clouds,160,2013-09-07 12:51:00
9:51 AM,64.0,48.9,58,30.06,10.0,Calm,Calm,-,N/A,,Scattered Clouds,0,2013-09-07 13:51:00
10:51 AM,69.1,48.9,49,30.06,10.0,South,5.8,-,N/A,,Scattered Clouds,170,2013-09-07 14:51:00
11:51 AM,73.9,48.9,41,30.02,10.0,SSW,9.2,-,N/A,,Scattered Clouds,200,2013-09-07 15:51:00
12:51 PM,75.9,48.9,38,29.99,10.0,South,8.1,-,N/A,,Scattered Clouds,190,2013-09-07 16:51:00
1:51 PM,77.0,48.9,37,29.97,10.0,SSW,8.1,-,N/A,,Mostly Cloudy,210,2013-09-07 17:51:00
2:51 PM,77.0,48.0,36,29.94,10.0,South,6.9,-,N/A,,Mostly Cloudy,190,2013-09-07 18:51:00
3:51 PM,77.0,48.0,36,29.93,10.0,SSW,9.2,-,N/A,,Mostly Cloudy,210,2013-09-07 19:51:00
4:51 PM,75.9,50.0,40,29.92,10.0,SSW,9.2,-,N/A,,Mostly Cloudy,210,2013-09-07 20:51:00
5:51 PM,73.9,51.1,45,29.91,10.0,SW,6.9,-,N/A,,Overcast,230,2013-09-07 21:51:00
6:51 PM,72.0,53.1,51,29.91,10.0,WSW,5.8,-,N/A,,Overcast,240,2013-09-07 22:51:00
7:51 PM,70.0,54.0,57,29.91,10.0,SW,4.6,-,N/A,,Overcast,220,2013-09-07 23:51:00
8:51 PM,68.0,54.0,61,29.91,10.0,South,4.6,-,N/A,,Overcast,180,2013-09-08 00:51:00
9:51 PM,66.9,55.0,66,29.91,10.0,SSW,5.8,-,N/A,,Overcast,200,2013-09-08 01:51:00
10:51 PM,66.0,57.0,73,29.89,10.0,SSW,4.6,-,0.00,,Overcast,200,2013-09-08 02:51:00
11:51 PM,66.0,55.9,70,29.87,10.0,SSW,3.5,-,0.00,,Overcast,210,2013-09-08 03:51:00